GEFSSE_prec_meanprecacc_252.txt.gz
Total_Precipitation_Accumulation
1.50 1.89 2.58 2.42 2.07 1.91 1.94 1.89 1.82 1.65 1.53 1.53 1.49 1.39 1.30 1.17 1.06 1.00 0.94 0.90 0.84 0.81 0.83 0.90 0.93 0.89 0.97 1.09 1.22 1.29 1.34 1.43 1.59 1.84 1.96 1.97 2.06 2.16 2.34 2.47 2.34 1.78 1.72
1.20 1.62 2.26 2.18 1.79 1.72 1.73 1.77 1.74 1.60 1.53 1.46 1.50 1.44 1.36 1.29 1.11 0.98 0.91 0.83 0.81 0.80 0.77 0.79 0.87 0.83 0.89 1.00 1.12 1.18 1.29 1.53 1.99 2.36 2.53 2.34 2.33 2.35 2.39 2.33 2.26 1.80 1.65
1.07 1.30 1.69 1.89 1.68 1.61 1.53 1.62 1.65 1.55 1.42 1.34 1.35 1.35 1.30 1.22 1.06 0.91 0.83 0.82 0.84 0.80 0.73 0.82 0.85 0.79 0.87 0.99 1.09 1.12 1.32 1.71 2.36 3.01 3.12 2.52 2.12 2.37 2.38 2.31 2.05 1.64 1.45
0.96 1.24 1.36 1.67 1.60 1.54 1.47 1.53 1.50 1.42 1.27 1.26 1.21 1.17 1.13 1.12 0.99 0.81 0.76 0.77 0.79 0.75 0.76 0.87 0.88 0.85 0.85 0.93 1.05 1.25 1.50 1.79 2.37 2.89 2.85 2.07 1.66 1.84 2.05 1.83 1.64 1.42 1.22
0.92 1.19 1.48 1.59 1.43 1.40 1.33 1.33 1.30 1.29 1.25 1.21 1.14 1.12 1.04 0.99 0.93 0.81 0.77 0.77 0.79 0.79 0.78 0.83 0.92 0.92 0.90 0.92 1.08 1.36 1.68 2.05 2.40 2.53 2.05 2.23 2.12 1.83 1.72 1.55 1.48 1.23 1.02
0.77 0.88 1.22 1.36 1.25 1.30 1.23 1.15 1.18 1.24 1.28 1.21 1.11 1.04 1.02 1.01 0.98 0.85 0.76 0.76 0.82 0.84 0.83 0.87 1.00 1.01 0.92 0.92 1.07 1.42 1.74 2.16 2.22 1.62 1.27 1.64 1.67 1.62 1.58 1.52 1.37 1.19 1.05
0.70 0.77 0.99 1.25 1.16 1.16 1.14 1.10 1.12 1.20 1.26 1.13 1.02 0.92 0.96 1.00 0.93 0.83 0.80 0.79 0.79 0.82 0.85 0.93 1.00 1.00 0.99 1.04 1.12 1.41 1.80 2.10 1.87 1.28 1.09 1.36 1.32 1.36 1.49 1.52 1.45 1.26 1.07
0.70 0.70 0.89 1.19 1.18 1.15 1.14 1.14 1.20 1.22 1.12 1.02 0.95 0.89 0.89 0.91 0.89 0.86 0.87 0.89 0.82 0.84 0.91 0.95 0.96 0.92 0.98 1.11 1.25 1.39 1.78 1.75 1.35 1.15 1.06 1.15 0.96 1.23 1.42 1.36 1.30 1.19 1.06
0.99 0.93 0.93 1.01 1.08 1.11 1.26 1.33 1.35 1.27 1.06 0.99 0.97 0.93 0.87 0.84 0.83 0.83 0.94 0.96 0.89 0.89 0.95 0.99 0.98 1.00 1.07 1.16 1.27 1.44 1.78 1.88 1.53 1.39 1.12 1.09 0.91 1.26 1.52 1.33 1.17 1.08 1.09
1.67 1.52 1.28 1.13 1.20 1.10 1.15 1.33 1.44 1.18 1.00 0.98 1.02 0.98 0.96 1.01 1.00 1.08 1.05 1.01 1.04 1.09 1.13 1.21 1.15 1.12 1.24 1.33 1.44 1.61 1.83 1.73 1.51 1.68 1.47 1.11 1.04 1.40 1.63 1.65 1.46 1.24 1.16
2.06 1.88 1.71 1.54 1.34 1.30 1.23 1.24 1.51 1.30 1.14 1.23 1.40 1.35 1.40 1.71 1.63 1.71 1.39 1.30 1.40 1.56 1.61 1.67 1.66 1.59 1.53 1.48 1.69 1.90 1.76 1.63 1.88 2.03 1.70 1.23 1.32 1.78 1.96 2.03 1.86 1.67 1.53
2.06 1.84 1.84 1.84 1.54 1.38 1.36 1.65 2.08 1.78 1.70 1.75 1.97 1.85 2.15 2.27 2.15 1.60 1.63 1.84 1.95 2.28 2.40 2.46 2.51 2.24 1.93 1.78 1.98 2.00 1.75 1.84 2.10 1.82 1.51 1.32 1.51 1.94 2.24 2.30 2.12 1.87 1.80
2.15 2.05 1.83 2.07 1.80 1.70 1.87 2.01 2.19 2.25 2.18 2.14 2.21 2.20 2.45 2.25 1.95 1.86 2.18 2.56 2.74 2.90 3.06 3.10 3.02 2.55 2.48 2.66 2.62 2.40 2.28 2.14 2.17 1.87 1.50 1.54 1.73 2.09 2.39 2.47 2.28 2.09 1.95
2.25 2.20 2.15 2.23 2.18 2.15 2.17 2.14 2.03 1.84 1.86 2.01 2.17 2.15 2.35 2.45 2.47 2.44 2.62 2.74 2.97 3.34 3.72 3.64 3.60 3.32 3.26 3.06 2.82 2.80 2.62 2.27 2.42 2.51 2.03 1.84 1.98 2.36 2.57 2.58 2.42 2.28 2.28
2.89 2.77 2.78 2.90 2.75 2.54 2.47 2.18 1.80 1.71 1.62 1.69 1.80 1.94 1.95 2.29 2.59 2.63 2.48 2.52 2.48 2.71 3.15 3.70 3.62 3.80 3.74 3.37 2.88 2.72 2.75 2.58 2.55 2.49 2.11 2.18 2.42 2.47 2.53 2.56 2.52 2.47 2.49
3.85 3.69 3.50 3.58 3.16 2.84 2.60 2.24 1.99 1.76 1.80 1.73 1.65 1.66 1.86 2.12 2.39 2.36 2.33 2.53 2.58 2.51 2.67 3.11 3.28 3.66 3.64 3.26 2.72 2.50 2.46 2.51 2.40 2.38 2.13 2.17 2.33 2.19 2.23 2.55 2.81 2.92 2.83
4.96 4.58 4.00 3.74 3.43 3.17 2.91 2.44 2.07 1.89 1.70 1.81 1.85 1.77 1.82 1.92 2.09 2.06 2.16 2.18 2.26 2.17 2.25 2.47 2.70 2.96 2.93 2.79 2.70 2.58 2.46 2.37 2.20 2.23 2.27 2.19 1.94 2.04 2.19 2.36 2.61 2.79 2.97
5.77 5.18 4.47 3.77 3.78 3.64 3.35 2.69 2.21 1.95 1.87 1.84 1.79 1.65 1.55 1.62 1.63 1.71 1.74 1.70 1.72 1.60 1.73 2.07 2.15 2.42 2.64 2.69 2.79 2.56 2.40 2.44 2.23 2.22 2.19 2.20 2.21 1.93 2.21 2.32 2.39 2.44 2.80
5.91 5.73 5.10 4.92 4.69 4.02 3.30 2.69 2.28 1.99 1.91 1.78 1.68 1.59 1.50 1.43 1.41 1.55 1.66 1.70 1.44 1.44 1.53 1.42 1.82 2.06 2.32 2.41 2.09 2.21 2.05 2.08 1.97 1.74 1.79 1.72 1.96 1.97 2.11 2.07 2.17 2.20 2.53
4.86 4.76 4.71 4.82 4.40 3.80 3.16 2.68 2.40 2.12 1.83 1.64 1.61 1.61 1.50 1.46 1.47 1.64 1.50 1.48 1.35 1.56 1.75 1.83 2.11 2.05 2.00 2.06 1.73 1.92 1.79 1.63 1.63 1.57 1.45 1.53 1.64 1.55 1.81 2.02 2.08 1.85 2.15
3.30 3.40 3.71 3.94 3.69 3.23 2.81 2.32 2.14 2.08 1.88 1.65 1.49 1.38 1.46 1.42 1.60 1.79 1.56 1.82 1.61 1.60 1.69 1.72 1.87 1.86 1.71 1.67 2.01 2.16 1.71 1.33 1.34 1.22 1.19 1.41 1.47 1.51 1.80 2.09 2.18 2.17 1.97
2.44 2.75 3.11 3.36 3.20 2.67 2.45 2.26 2.12 2.06 1.92 1.86 1.70 1.61 1.43 1.41 1.51 1.46 1.75 1.62 1.64 1.76 1.79 1.85 1.97 1.98 1.77 1.72 2.04 2.39 2.11 2.00 1.78 1.07 1.14 1.31 1.40 1.61 1.69 1.71 1.92 2.20 1.98
2.27 2.43 2.37 2.61 2.80 2.55 2.44 2.36 2.26 2.18 1.97 2.02 1.94 1.78 1.44 1.30 1.34 1.41 1.46 1.51 1.73 1.57 1.84 2.04 1.99 2.05 2.05 1.89 1.90 2.27 2.31 2.24 1.89 1.45 1.17 1.15 1.32 1.67 1.71 1.76 1.66 1.84 2.01
1.60 1.87 2.08 2.33 2.51 2.44 2.33 2.13 1.96 1.78 1.69 1.69 1.72 1.72 1.58 1.46 1.31 1.32 1.34 1.54 1.73 1.56 1.96 1.65 1.74 1.98 2.11 1.95 1.86 1.73 1.78 1.96 2.09 1.96 1.59 1.27 1.26 1.44 1.58 1.50 1.50 1.71 1.87
1.13 1.52 1.94 2.28 2.52 2.40 2.10 1.93 1.93 1.82 1.78 1.70 1.64 1.83 1.72 1.63 1.43 1.25 1.35 1.53 1.61 1.55 1.69 1.75 2.03 1.94 1.88 1.87 1.87 1.89 1.95 1.85 1.67 1.79 1.81 1.69 1.53 1.22 1.13 1.21 1.34 1.51 1.58
0.93 1.19 1.55 1.86 2.09 2.10 1.96 1.87 1.91 1.93 1.89 1.76 1.57 1.59 1.50 1.51 1.46 1.36 1.44 1.55 1.54 1.49 1.60 1.67 1.84 1.83 1.91 1.98 1.83 1.73 1.86 1.79 1.70 1.73 1.56 1.49 1.51 1.13 0.98 0.99 1.10 1.32 1.44

GEFSSE_prec_meanprecacc_258.txt.gz
Total_Precipitation_Accumulation
1.71 2.16 2.83 2.61 2.17 2.00 2.04 1.98 1.92 1.76 1.62 1.59 1.54 1.42 1.33 1.20 1.09 1.03 0.97 0.93 0.88 0.84 0.85 0.93 0.96 0.91 1.00 1.14 1.25 1.31 1.37 1.46 1.63 1.89 2.01 2.01 2.10 2.21 2.42 2.63 2.48 1.84 1.77
1.37 1.84 2.47 2.34 1.91 1.83 1.82 1.87 1.85 1.71 1.63 1.53 1.55 1.48 1.39 1.32 1.14 1.02 0.94 0.87 0.86 0.85 0.81 0.82 0.89 0.85 0.91 1.03 1.15 1.20 1.32 1.56 2.03 2.43 2.58 2.37 2.35 2.38 2.46 2.47 2.35 1.84 1.72
1.22 1.45 1.83 2.01 1.81 1.71 1.61 1.71 1.76 1.65 1.52 1.43 1.41 1.39 1.33 1.25 1.10 0.94 0.86 0.86 0.90 0.86 0.76 0.84 0.87 0.82 0.90 1.01 1.12 1.15 1.35 1.74 2.41 3.07 3.18 2.56 2.15 2.40 2.48 2.40 2.10 1.71 1.52
1.08 1.37 1.45 1.77 1.70 1.62 1.55 1.61 1.59 1.50 1.34 1.32 1.26 1.21 1.16 1.16 1.04 0.85 0.79 0.81 0.84 0.80 0.79 0.88 0.90 0.87 0.87 0.96 1.08 1.28 1.53 1.82 2.42 2.92 2.87 2.10 1.69 1.89 2.12 1.87 1.68 1.49 1.30
1.02 1.28 1.55 1.68 1.53 1.47 1.40 1.41 1.40 1.38 1.32 1.28 1.19 1.16 1.07 1.03 0.97 0.84 0.79 0.80 0.82 0.83 0.80 0.85 0.95 0.95 0.93 0.96 1.11 1.39 1.72 2.07 2.43 2.55 2.06 2.25 2.14 1.85 1.75 1.59 1.52 1.28 1.07
0.85 0.98 1.31 1.45 1.35 1.38 1.30 1.23 1.28 1.33 1.36 1.28 1.16 1.08 1.05 1.04 1.02 0.88 0.78 0.78 0.85 0.88 0.88 0.90 1.02 1.04 0.95 0.95 1.11 1.46 1.76 2.17 2.24 1.63 1.28 1.65 1.69 1.65 1.62 1.56 1.41 1.24 1.09
0.80 0.89 1.12 1.37 1.28 1.26 1.22 1.19 1.24 1.31 1.34 1.20 1.08 0.98 1.00 1.03 0.96 0.85 0.82 0.82 0.81 0.85 0.90 0.97 1.03 1.03 1.01 1.06 1.15 1.43 1.82 2.12 1.89 1.30 1.09 1.37 1.34 1.39 1.53 1.55 1.48 1.30 1.11
0.81 0.82 1.04 1.33 1.30 1.24 1.23 1.24 1.31 1.34 1.22 1.09 1.00 0.93 0.93 0.95 0.93 0.89 0.90 0.90 0.83 0.86 0.95 1.00 1.01 0.96 1.00 1.14 1.28 1.42 1.80 1.76 1.36 1.16 1.07 1.17 0.98 1.26 1.46 1.39 1.33 1.22 1.10
1.10 1.06 1.07 1.14 1.19 1.24 1.39 1.46 1.47 1.38 1.15 1.06 1.02 0.96 0.90 0.87 0.87 0.87 0.96 0.98 0.90 0.92 0.99 1.06 1.04 1.04 1.09 1.20 1.31 1.48 1.82 1.90 1.55 1.40 1.13 1.10 0.92 1.28 1.55 1.36 1.20 1.11 1.12
1.77 1.64 1.42 1.27 1.35 1.26 1.33 1.50 1.57 1.30 1.08 1.04 1.06 1.02 1.00 1.04 1.03 1.11 1.08 1.05 1.09 1.16 1.20 1.28 1.23 1.19 1.28 1.36 1.49 1.66 1.88 1.75 1.52 1.69 1.48 1.12 1.05 1.43 1.66 1.69 1.49 1.27 1.18
2.19 2.02 1.80 1.63 1.46 1.44 1.40 1.43 1.67 1.43 1.22 1.30 1.46 1.41 1.45 1.76 1.67 1.74 1.42 1.36 1.48 1.66 1.71 1.75 1.74 1.64 1.56 1.50 1.72 1.94 1.79 1.67 1.90 2.05 1.72 1.24 1.33 1.81 2.00 2.07 1.89 1.70 1.56
2.24 2.00 1.92 1.90 1.61 1.49 1.56 1.92 2.30 1.92 1.79 1.83 2.05 1.92 2.22 2.32 2.21 1.63 1.67 1.91 2.04 2.37 2.50 2.53 2.56 2.27 1.95 1.81 2.01 2.03 1.78 1.85 2.12 1.84 1.53 1.34 1.53 1.97 2.28 2.33 2.14 1.89 1.82
2.27 2.17 1.92 2.16 1.86 1.79 2.06 2.22 2.39 2.40 2.28 2.23 2.28 2.27 2.52 2.30 1.99 1.89 2.22 2.61 2.81 2.95 3.12 3.16 3.07 2.58 2.51 2.70 2.66 2.42 2.31 2.16 2.19 1.89 1.53 1.56 1.75 2.12 2.43 2.50 2.29 2.11 1.97
2.30 2.25 2.23 2.34 2.29 2.30 2.34 2.29 2.20 1.98 1.95 2.08 2.25 2.22 2.42 2.51 2.52 2.48 2.66 2.79 3.03 3.40 3.77 3.69 3.65 3.36 3.30 3.08 2.84 2.83 2.65 2.29 2.43 2.53 2.06 1.86 2.01 2.40 2.61 2.62 2.46 2.31 2.31
2.91 2.80 2.83 2.98 2.85 2.68 2.62 2.31 1.95 1.82 1.70 1.75 1.87 2.00 2.00 2.35 2.64 2.67 2.53 2.58 2.52 2.75 3.21 3.76 3.67 3.84 3.78 3.39 2.90 2.75 2.78 2.61 2.56 2.51 2.13 2.20 2.45 2.49 2.56 2.60 2.58 2.53 2.55
3.87 3.72 3.54 3.63 3.21 2.90 2.66 2.31 2.07 1.83 1.87 1.79 1.71 1.70 1.91 2.18 2.44 2.41 2.38 2.59 2.63 2.56 2.72 3.16 3.32 3.71 3.68 3.29 2.75 2.53 2.48 2.54 2.44 2.41 2.15 2.18 2.35 2.22 2.27 2.60 2.88 3.01 2.90
4.97 4.61 4.04 3.78 3.47 3.20 2.93 2.46 2.09 1.94 1.78 1.93 1.92 1.81 1.85 1.95 2.15 2.13 2.23 2.23 2.31 2.21 2.29 2.51 2.73 3.00 2.97 2.83 2.73 2.62 2.49 2.39 2.22 2.26 2.30 2.21 1.97 2.07 2.22 2.41 2.67 2.86 3.04
5.78 5.20 4.50 3.79 3.81 3.68 3.40 2.73 2.22 1.97 1.91 1.90 1.85 1.68 1.56 1.65 1.66 1.76 1.80 1.76 1.77 1.64 1.77 2.11 2.20 2.47 2.69 2.74 2.84 2.60 2.43 2.46 2.27 2.26 2.22 2.23 2.24 1.96 2.24 2.34 2.41 2.48 2.85
5.92 5.73 5.12 4.95 4.72 4.05 3.35 2.74 2.30 2.02 1.97 1.80 1.71 1.61 1.51 1.45 1.44 1.60 1.72 1.77 1.48 1.48 1.58 1.46 1.86 2.12 2.37 2.46 2.13 2.25 2.07 2.10 2.00 1.77 1.80 1.73 1.98 2.00 2.14 2.09 2.19 2.23 2.58
4.86 4.76 4.72 4.85 4.43 3.83 3.20 2.73 2.44 2.15 1.85 1.67 1.64 1.64 1.53 1.49 1.50 1.69 1.55 1.52 1.37 1.60 1.82 1.90 2.19 2.13 2.08 2.15 1.81 1.95 1.80 1.63 1.64 1.59 1.46 1.54 1.65 1.56 1.82 2.05 2.13 1.88 2.18
3.30 3.40 3.72 3.95 3.71 3.25 2.84 2.37 2.18 2.12 1.92 1.68 1.53 1.41 1.50 1.45 1.64 1.83 1.61 1.88 1.66 1.64 1.75 1.80 1.95 1.92 1.78 1.74 2.08 2.20 1.73 1.34 1.35 1.24 1.20 1.42 1.48 1.52 1.81 2.11 2.21 2.21 2.01
2.45 2.75 3.11 3.36 3.21 2.69 2.47 2.29 2.16 2.10 1.94 1.89 1.74 1.65 1.46 1.44 1.54 1.49 1.81 1.68 1.69 1.82 1.85 1.93 2.05 2.04 1.83 1.77 2.10 2.45 2.15 2.04 1.80 1.08 1.16 1.33 1.42 1.64 1.71 1.72 1.93 2.22 2.00
2.27 2.43 2.37 2.61 2.81 2.55 2.45 2.38 2.28 2.20 2.00 2.06 1.98 1.83 1.47 1.32 1.35 1.43 1.49 1.55 1.77 1.61 1.89 2.12 2.06 2.13 2.12 1.94 1.96 2.33 2.37 2.30 1.94 1.47 1.18 1.17 1.35 1.70 1.73 1.77 1.67 1.84 2.03
1.61 1.87 2.09 2.33 2.51 2.45 2.34 2.14 1.99 1.81 1.72 1.73 1.75 1.74 1.60 1.47 1.32 1.33 1.36 1.58 1.77 1.59 2.02 1.72 1.82 2.05 2.19 2.02 1.94 1.79 1.84 2.02 2.16 2.01 1.62 1.29 1.29 1.47 1.62 1.52 1.52 1.73 1.89
1.13 1.52 1.95 2.28 2.52 2.41 2.11 1.95 1.96 1.85 1.81 1.73 1.66 1.85 1.73 1.64 1.45 1.26 1.37 1.56 1.65 1.60 1.77 1.85 2.13 2.01 1.94 1.93 1.94 1.96 2.01 1.91 1.73 1.86 1.88 1.73 1.56 1.24 1.15 1.23 1.37 1.53 1.60
0.93 1.20 1.56 1.87 2.10 2.11 1.97 1.88 1.92 1.94 1.91 1.78 1.60 1.60 1.51 1.51 1.47 1.38 1.45 1.59 1.57 1.54 1.68 1.77 1.92 1.90 1.96 2.02 1.89 1.80 1.93 1.86 1.77 1.80 1.62 1.55 1.56 1.15 0.99 1.00 1.11 1.34 1.45

GEFSSE_prec_meanprecacc_264.txt.gz
Total_Precipitation_Accumulation
2.04 2.33 2.94 2.71 2.26 2.11 2.14 2.07 2.00 1.82 1.66 1.63 1.57 1.45 1.36 1.23 1.12 1.06 1.00 0.96 0.90 0.87 0.87 0.95 0.97 0.93 1.02 1.17 1.26 1.32 1.37 1.46 1.64 1.90 2.03 2.04 2.14 2.26 2.46 2.68 2.58 1.92 1.82
1.66 2.05 2.62 2.46 2.02 1.93 1.90 1.96 1.93 1.78 1.68 1.58 1.60 1.51 1.43 1.36 1.18 1.05 0.97 0.89 0.88 0.88 0.83 0.84 0.90 0.87 0.93 1.05 1.18 1.21 1.33 1.57 2.04 2.44 2.61 2.40 2.39 2.42 2.51 2.55 2.45 1.93 1.77
1.37 1.57 1.92 2.10 1.90 1.79 1.67 1.79 1.83 1.73 1.59 1.48 1.46 1.44 1.38 1.30 1.13 0.97 0.89 0.89 0.93 0.91 0.79 0.85 0.88 0.83 0.92 1.03 1.16 1.17 1.37 1.76 2.43 3.10 3.22 2.60 2.19 2.45 2.55 2.45 2.15 1.75 1.58
1.21 1.47 1.51 1.82 1.76 1.67 1.60 1.69 1.67 1.58 1.41 1.37 1.32 1.28 1.22 1.21 1.07 0.86 0.80 0.83 0.86 0.83 0.81 0.89 0.90 0.88 0.90 0.98 1.10 1.31 1.58 1.85 2.45 2.98 2.95 2.15 1.73 1.97 2.19 1.89 1.70 1.52 1.33
1.14 1.37 1.61 1.73 1.58 1.52 1.46 1.50 1.48 1.46 1.40 1.34 1.25 1.24 1.14 1.08 1.00 0.86 0.80 0.81 0.84 0.85 0.82 0.86 0.96 0.97 0.95 0.98 1.13 1.41 1.74 2.08 2.47 2.65 2.12 2.30 2.19 1.92 1.79 1.62 1.55 1.31 1.09
0.94 1.05 1.36 1.51 1.40 1.43 1.35 1.30 1.37 1.41 1.43 1.35 1.23 1.16 1.13 1.09 1.07 0.92 0.80 0.80 0.86 0.91 0.90 0.91 1.04 1.06 0.96 0.96 1.12 1.47 1.77 2.20 2.31 1.72 1.32 1.70 1.74 1.69 1.65 1.59 1.44 1.27 1.13
0.89 0.96 1.15 1.42 1.32 1.29 1.26 1.24 1.32 1.38 1.40 1.28 1.17 1.05 1.07 1.10 1.02 0.89 0.84 0.83 0.82 0.87 0.94 1.00 1.05 1.06 1.03 1.07 1.16 1.44 1.83 2.15 1.94 1.33 1.12 1.41 1.38 1.42 1.57 1.59 1.51 1.32 1.14
0.88 0.89 1.08 1.37 1.33 1.28 1.27 1.29 1.39 1.43 1.30 1.20 1.08 0.99 0.99 1.02 0.97 0.93 0.92 0.91 0.83 0.88 0.99 1.04 1.03 0.98 1.02 1.14 1.29 1.43 1.82 1.81 1.40 1.17 1.09 1.19 1.00 1.28 1.48 1.43 1.35 1.23 1.11
1.19 1.14 1.13 1.19 1.23 1.28 1.44 1.52 1.57 1.49 1.26 1.15 1.09 1.03 0.95 0.92 0.91 0.90 0.98 1.00 0.92 0.94 1.03 1.10 1.07 1.05 1.10 1.21 1.32 1.50 1.84 1.93 1.58 1.43 1.15 1.12 0.94 1.30 1.56 1.37 1.21 1.12 1.13
1.87 1.72 1.49 1.35 1.44 1.34 1.42 1.60 1.68 1.42 1.20 1.14 1.13 1.08 1.05 1.09 1.08 1.14 1.10 1.07 1.13 1.21 1.25 1.31 1.26 1.20 1.29 1.38 1.50 1.67 1.89 1.77 1.54 1.71 1.50 1.14 1.07 1.44 1.67 1.70 1.50 1.29 1.19
2.31 2.11 1.88 1.73 1.59 1.57 1.55 1.55 1.78 1.56 1.34 1.40 1.54 1.48 1.53 1.85 1.75 1.80 1.46 1.38 1.52 1.71 1.75 1.78 1.76 1.66 1.57 1.52 1.74 1.95 1.81 1.69 1.91 2.08 1.74 1.26 1.34 1.82 2.00 2.08 1.91 1.71 1.56
2.34 2.09 1.99 2.00 1.73 1.64 1.71 2.05 2.45 2.05 1.89 1.93 2.13 2.02 2.33 2.42 2.31 1.69 1.70 1.93 2.08 2.42 2.55 2.57 2.60 2.29 1.97 1.84 2.05 2.06 1.80 1.88 2.14 1.88 1.56 1.35 1.54 1.98 2.29 2.34 2.15 1.90 1.83
2.33 2.25 1.99 2.24 1.99 1.99 2.29 2.37 2.51 2.51 2.39 2.37 2.41 2.39 2.65 2.39 2.07 1.96 2.28 2.65 2.87 3.02 3.19 3.23 3.14 2.63 2.57 2.75 2.71 2.45 2.32 2.17 2.22 1.95 1.57 1.58 1.76 2.14 2.44 2.51 2.31 2.12 1.98
2.34 2.31 2.29 2.43 2.46 2.57 2.56 2.45 2.32 2.07 2.07 2.23 2.37 2.32 2.51 2.60 2.60 2.56 2.72 2.84 3.09 3.46 3.83 3.76 3.73 3.42 3.35 3.11 2.87 2.86 2.67 2.31 2.45 2.56 2.09 1.87 2.02 2.41 2.62 2.63 2.47 2.33 2.33
2.94 2.83 2.89 3.07 3.01 2.93 2.84 2.51 2.12 1.95 1.84 1.88 1.97 2.08 2.07 2.42 2.71 2.74 2.58 2.63 2.59 2.80 3.25 3.82 3.73 3.89 3.81 3.41 2.92 2.77 2.80 2.63 2.59 2.54 2.17 2.22 2.46 2.50 2.57 2.61 2.60 2.55 2.57
3.90 3.75 3.58 3.68 3.29 3.03 2.85 2.51 2.25 1.99 2.02 1.92 1.81 1.77 1.96 2.23 2.50 2.47 2.43 2.64 2.68 2.60 2.76 3.22 3.37 3.76 3.70 3.32 2.77 2.54 2.50 2.55 2.46 2.43 2.24 2.24 2.37 2.22 2.28 2.61 2.89 3.02 2.92
5.01 4.65 4.07 3.81 3.52 3.26 3.01 2.58 2.24 2.09 1.92 2.04 2.01 1.87 1.89 2.00 2.20 2.18 2.28 2.29 2.35 2.26 2.34 2.56 2.77 3.05 3.01 2.86 2.76 2.63 2.51 2.40 2.23 2.27 2.33 2.25 2.00 2.10 2.24 2.42 2.69 2.88 3.06
5.80 5.24 4.53 3.82 3.86 3.73 3.44 2.79 2.31 2.09 2.02 1.98 1.91 1.73 1.61 1.69 1.70 1.80 1.84 1.82 1.83 1.68 1.80 2.15 2.23 2.50 2.72 2.77 2.87 2.62 2.44 2.48 2.28 2.27 2.23 2.25 2.28 1.99 2.27 2.36 2.44 2.50 2.88
5.94 5.76 5.15 5.00 4.78 4.10 3.39 2.79 2.35 2.08 2.02 1.84 1.74 1.65 1.56 1.48 1.47 1.64 1.78 1.83 1.53 1.52 1.62 1.51 1.93 2.17 2.42 2.50 2.15 2.27 2.07 2.11 2.01 1.78 1.81 1.74 1.99 2.02 2.18 2.13 2.22 2.25 2.61
4.88 4.79 4.76 4.91 4.48 3.88 3.24 2.79 2.51 2.21 1.89 1.70 1.66 1.68 1.57 1.54 1.55 1.75 1.61 1.58 1.44 1.68 1.89 1.97 2.27 2.21 2.15 2.21 1.85 1.98 1.83 1.66 1.66 1.60 1.48 1.55 1.65 1.57 1.85 2.09 2.17 1.92 2.21
3.33 3.45 3.77 3.99 3.74 3.29 2.89 2.43 2.25 2.20 1.96 1.71 1.56 1.44 1.53 1.49 1.69 1.90 1.68 1.97 1.74 1.73 1.84 1.88 2.04 2.01 1.86 1.82 2.16 2.27 1.79 1.37 1.38 1.27 1.23 1.45 1.49 1.54 1.83 2.12 2.24 2.25 2.05
2.47 2.78 3.15 3.39 3.24 2.71 2.50 2.33 2.21 2.15 1.98 1.93 1.77 1.69 1.49 1.47 1.58 1.54 1.88 1.75 1.79 1.92 1.95 2.02 2.14 2.12 1.89 1.85 2.18 2.55 2.24 2.12 1.85 1.11 1.19 1.36 1.44 1.66 1.73 1.73 1.94 2.25 2.04
2.30 2.46 2.40 2.65 2.83 2.57 2.47 2.41 2.32 2.25 2.06 2.10 2.02 1.86 1.49 1.33 1.37 1.45 1.52 1.59 1.84 1.67 1.99 2.22 2.15 2.22 2.19 2.00 2.03 2.43 2.49 2.43 2.03 1.52 1.23 1.20 1.38 1.74 1.77 1.79 1.68 1.87 2.09
1.63 1.90 2.12 2.37 2.54 2.48 2.36 2.16 2.03 1.85 1.77 1.78 1.79 1.77 1.62 1.49 1.33 1.35 1.38 1.59 1.81 1.64 2.11 1.80 1.92 2.13 2.28 2.09 2.00 1.86 1.93 2.14 2.26 2.10 1.70 1.32 1.31 1.50 1.65 1.56 1.56 1.78 1.99
1.14 1.53 1.98 2.34 2.58 2.46 2.15 1.97 1.99 1.88 1.83 1.75 1.69 1.89 1.76 1.67 1.48 1.30 1.41 1.60 1.68 1.64 1.83 1.92 2.21 2.08 2.02 1.99 2.01 2.03 2.10 2.03 1.83 1.96 1.98 1.80 1.61 1.26 1.18 1.28 1.43 1.56 1.64
0.94 1.21 1.58 1.92 2.16 2.17 2.01 1.91 1.95 1.98 1.96 1.83 1.65 1.64 1.54 1.53 1.49 1.40 1.48 1.64 1.61 1.60 1.75 1.84 1.99 1.97 2.03 2.10 1.95 1.86 2.02 1.97 1.87 1.90 1.73 1.64 1.63 1.19 1.03 1.04 1.15 1.37 1.47

GEFSSE_prec_meanprecacc_270.txt.gz
Total_Precipitation_Accumulation
2.20 2.48 3.06 2.77 2.31 2.16 2.21 2.15 2.04 1.85 1.69 1.65 1.60 1.49 1.40 1.25 1.14 1.07 1.01 0.97 0.92 0.89 0.89 0.96 0.99 0.95 1.05 1.21 1.30 1.34 1.38 1.47 1.65 1.91 2.06 2.08 2.16 2.27 2.51 2.74 2.62 1.94 1.83
1.79 2.18 2.74 2.52 2.07 1.98 1.97 2.03 1.99 1.83 1.74 1.62 1.63 1.55 1.47 1.39 1.20 1.06 0.98 0.90 0.89 0.89 0.84 0.85 0.91 0.88 0.95 1.07 1.21 1.23 1.35 1.59 2.06 2.46 2.63 2.43 2.41 2.45 2.56 2.60 2.50 1.96 1.80
1.46 1.66 2.01 2.18 1.96 1.84 1.74 1.85 1.90 1.79 1.66 1.52 1.50 1.47 1.41 1.33 1.15 0.97 0.90 0.90 0.94 0.92 0.80 0.86 0.89 0.85 0.93 1.05 1.18 1.20 1.39 1.79 2.47 3.13 3.25 2.62 2.22 2.50 2.59 2.49 2.19 1.79 1.62
1.24 1.51 1.57 1.89 1.81 1.71 1.65 1.76 1.72 1.63 1.46 1.41 1.34 1.31 1.26 1.26 1.09 0.87 0.81 0.84 0.87 0.84 0.83 0.91 0.92 0.90 0.92 1.00 1.13 1.34 1.62 1.88 2.48 3.02 2.98 2.17 1.76 2.03 2.24 1.94 1.75 1.56 1.37
1.15 1.39 1.65 1.76 1.61 1.55 1.50 1.55 1.52 1.50 1.43 1.37 1.27 1.26 1.18 1.13 1.03 0.87 0.81 0.82 0.85 0.86 0.83 0.88 0.99 0.99 0.97 1.00 1.16 1.45 1.77 2.11 2.53 2.70 2.15 2.34 2.25 1.98 1.83 1.66 1.59 1.35 1.12
0.95 1.06 1.38 1.53 1.43 1.45 1.38 1.32 1.40 1.45 1.46 1.38 1.25 1.19 1.18 1.15 1.11 0.94 0.81 0.80 0.87 0.92 0.91 0.93 1.06 1.07 0.97 0.98 1.14 1.50 1.81 2.24 2.37 1.77 1.36 1.75 1.78 1.73 1.69 1.62 1.47 1.29 1.15
0.90 0.96 1.16 1.43 1.34 1.31 1.27 1.26 1.34 1.41 1.44 1.32 1.20 1.08 1.13 1.15 1.05 0.91 0.85 0.83 0.82 0.88 0.97 1.01 1.06 1.06 1.04 1.08 1.17 1.45 1.85 2.17 1.97 1.36 1.16 1.46 1.41 1.45 1.60 1.61 1.53 1.34 1.16
0.89 0.90 1.10 1.40 1.35 1.28 1.28 1.31 1.43 1.46 1.34 1.24 1.14 1.04 1.03 1.05 1.01 0.95 0.93 0.92 0.84 0.89 1.03 1.05 1.04 0.99 1.03 1.15 1.30 1.45 1.85 1.84 1.42 1.20 1.11 1.22 1.03 1.31 1.50 1.45 1.36 1.24 1.12
1.22 1.16 1.16 1.21 1.24 1.29 1.45 1.54 1.61 1.55 1.31 1.21 1.15 1.06 0.98 0.96 0.95 0.92 0.99 1.00 0.92 0.95 1.04 1.11 1.08 1.06 1.11 1.22 1.34 1.53 1.87 1.97 1.61 1.45 1.17 1.14 0.96 1.31 1.58 1.38 1.22 1.13 1.14
1.93 1.78 1.53 1.38 1.47 1.36 1.44 1.63 1.73 1.48 1.25 1.17 1.17 1.10 1.08 1.13 1.12 1.16 1.11 1.08 1.14 1.23 1.27 1.33 1.27 1.22 1.31 1.39 1.52 1.70 1.91 1.80 1.57 1.73 1.52 1.16 1.08 1.45 1.68 1.70 1.51 1.30 1.20
2.38 2.18 1.94 1.77 1.61 1.59 1.58 1.60 1.84 1.62 1.38 1.43 1.58 1.50 1.56 1.89 1.80 1.84 1.47 1.39 1.55 1.72 1.77 1.80 1.78 1.68 1.60 1.54 1.76 1.97 1.84 1.72 1.95 2.11 1.78 1.29 1.36 1.84 2.02 2.09 1.91 1.72 1.57
2.39 2.15 2.04 2.04 1.77 1.68 1.76 2.10 2.50 2.09 1.92 1.96 2.17 2.05 2.37 2.46 2.35 1.73 1.73 1.97 2.12 2.46 2.58 2.60 2.63 2.33 2.00 1.85 2.07 2.08 1.83 1.92 2.19 1.92 1.58 1.37 1.56 2.01 2.30 2.35 2.15 1.91 1.84
2.35 2.27 2.02 2.27 2.04 2.05 2.34 2.43 2.56 2.54 2.41 2.40 2.46 2.43 2.69 2.43 2.11 2.01 2.32 2.67 2.89 3.04 3.21 3.25 3.16 2.66 2.60 2.78 2.74 2.49 2.36 2.21 2.28 1.99 1.59 1.59 1.78 2.16 2.46 2.52 2.31 2.13 1.98
2.35 2.32 2.31 2.45 2.51 2.64 2.61 2.48 2.34 2.09 2.10 2.29 2.43 2.38 2.57 2.63 2.63 2.61 2.77 2.87 3.11 3.48 3.86 3.79 3.77 3.47 3.39 3.15 2.91 2.91 2.72 2.36 2.52 2.61 2.12 1.90 2.03 2.43 2.65 2.65 2.49 2.35 2.34
2.95 2.84 2.91 3.09 3.04 2.97 2.88 2.56 2.15 1.99 1.89 1.96 2.05 2.15 2.12 2.44 2.74 2.77 2.61 2.66 2.61 2.83 3.28 3.85 3.77 3.92 3.83 3.44 2.95 2.82 2.87 2.70 2.67 2.60 2.22 2.25 2.47 2.53 2.60 2.64 2.62 2.57 2.59
3.92 3.76 3.60 3.70 3.31 3.05 2.89 2.56 2.32 2.05 2.08 1.98 1.87 1.81 1.99 2.25 2.52 2.49 2.46 2.67 2.70 2.63 2.79 3.26 3.41 3.78 3.73 3.36 2.81 2.60 2.57 2.63 2.51 2.48 2.28 2.27 2.40 2.26 2.32 2.65 2.93 3.06 2.95
5.03 4.67 4.10 3.83 3.54 3.29 3.05 2.66 2.35 2.19 2.00 2.12 2.09 1.91 1.93 2.03 2.22 2.22 2.31 2.31 2.37 2.28 2.37 2.59 2.80 3.07 3.04 2.90 2.80 2.67 2.56 2.46 2.28 2.32 2.36 2.28 2.03 2.13 2.27 2.45 2.73 2.93 3.10
5.82 5.27 4.56 3.84 3.88 3.76 3.47 2.82 2.41 2.22 2.12 2.06 1.97 1.78 1.65 1.73 1.74 1.85 1.87 1.83 1.85 1.71 1.83 2.19 2.27 2.53 2.75 2.81 2.91 2.66 2.48 2.53 2.32 2.31 2.28 2.31 2.33 2.02 2.29 2.40 2.49 2.55 2.93
5.96 5.78 5.18 5.02 4.80 4.13 3.43 2.81 2.41 2.19 2.13 1.93 1.83 1.72 1.62 1.53 1.53 1.68 1.80 1.85 1.56 1.55 1.65 1.55 1.97 2.22 2.46 2.53 2.18 2.31 2.11 2.15 2.08 1.83 1.87 1.81 2.05 2.07 2.22 2.17 2.30 2.32 2.66
4.91 4.82 4.78 4.93 4.51 3.90 3.27 2.81 2.54 2.28 1.97 1.77 1.74 1.75 1.62 1.57 1.58 1.78 1.64 1.60 1.46 1.72 1.93 2.01 2.31 2.25 2.19 2.25 1.90 2.02 1.87 1.72 1.74 1.67 1.55 1.62 1.71 1.62 1.89 2.14 2.23 1.95 2.25
3.38 3.50 3.80 4.01 3.75 3.31 2.92 2.46 2.28 2.22 1.98 1.74 1.60 1.50 1.58 1.51 1.70 1.91 1.70 1.98 1.77 1.77 1.88 1.92 2.08 2.06 1.90 1.87 2.22 2.32 1.83 1.44 1.48 1.36 1.31 1.51 1.53 1.58 1.88 2.17 2.29 2.28 2.08
2.53 2.85 3.20 3.42 3.26 2.73 2.52 2.34 2.22 2.16 1.99 1.94 1.80 1.73 1.52 1.48 1.59 1.54 1.89 1.77 1.81 1.95 1.98 2.06 2.18 2.18 1.96 1.90 2.26 2.62 2.28 2.21 1.93 1.20 1.23 1.40 1.48 1.72 1.78 1.78 1.99 2.29 2.08
2.38 2.59 2.49 2.71 2.88 2.61 2.50 2.43 2.34 2.27 2.07 2.12 2.05 1.89 1.51 1.34 1.38 1.45 1.53 1.60 1.85 1.69 2.01 2.25 2.19 2.27 2.24 2.05 2.10 2.50 2.53 2.46 2.06 1.59 1.26 1.24 1.44 1.81 1.82 1.85 1.74 1.94 2.14
1.66 1.97 2.24 2.51 2.65 2.55 2.41 2.20 2.05 1.86 1.78 1.79 1.80 1.78 1.64 1.50 1.34 1.36 1.39 1.61 1.82 1.66 2.13 1.83 1.95 2.16 2.31 2.11 2.04 1.92 2.00 2.18 2.30 2.14 1.73 1.36 1.37 1.55 1.71 1.61 1.61 1.84 2.06
1.15 1.56 2.02 2.41 2.68 2.53 2.21 2.03 2.04 1.91 1.85 1.77 1.71 1.92 1.78 1.68 1.49 1.31 1.44 1.62 1.71 1.67 1.86 1.96 2.24 2.11 2.05 2.03 2.05 2.08 2.16 2.09 1.88 2.04 2.04 1.83 1.64 1.30 1.23 1.35 1.49 1.61 1.70
0.95 1.23 1.60 1.95 2.19 2.20 2.04 1.96 2.00 2.03 2.00 1.86 1.68 1.69 1.58 1.56 1.51 1.42 1.50 1.66 1.63 1.62 1.79 1.87 2.03 2.01 2.06 2.13 1.99 1.89 2.05 2.02 1.92 1.97 1.78 1.67 1.66 1.24 1.08 1.12 1.22 1.44 1.55

GEFSSE_prec_meanprecacc_276.txt.gz
Total_Precipitation_Accumulation
2.35 2.62 3.18 2.85 2.37 2.22 2.28 2.22 2.10 1.92 1.76 1.72 1.67 1.54 1.43 1.27 1.15 1.08 1.02 1.00 0.95 0.93 0.93 1.01 1.03 0.98 1.10 1.25 1.34 1.37 1.41 1.50 1.68 1.94 2.09 2.10 2.19 2.31 2.56 2.79 2.66 1.96 1.88
1.94 2.33 2.85 2.60 2.13 2.04 2.03 2.11 2.03 1.89 1.82 1.70 1.70 1.60 1.52 1.41 1.21 1.08 1.00 0.93 0.93 0.94 0.88 0.89 0.96 0.92 0.98 1.10 1.24 1.27 1.39 1.64 2.10 2.51 2.69 2.48 2.45 2.49 2.62 2.66 2.54 1.99 1.84
1.56 1.76 2.09 2.23 2.01 1.90 1.80 1.93 1.95 1.83 1.73 1.61 1.57 1.52 1.48 1.38 1.16 0.98 0.92 0.92 0.97 0.96 0.84 0.90 0.93 0.87 0.96 1.08 1.21 1.22 1.43 1.85 2.52 3.20 3.32 2.67 2.26 2.55 2.66 2.56 2.24 1.82 1.65
1.29 1.57 1.62 1.92 1.85 1.77 1.72 1.82 1.76 1.65 1.52 1.50 1.43 1.39 1.35 1.32 1.11 0.88 0.82 0.85 0.89 0.87 0.85 0.94 0.95 0.93 0.94 1.03 1.15 1.36 1.66 1.93 2.53 3.06 3.01 2.19 1.80 2.11 2.33 2.02 1.79 1.60 1.41
1.18 1.43 1.69 1.81 1.65 1.60 1.54 1.59 1.55 1.52 1.46 1.44 1.35 1.34 1.27 1.20 1.06 0.88 0.82 0.83 0.86 0.88 0.86 0.91 1.01 1.02 1.00 1.02 1.18 1.47 1.82 2.16 2.56 2.72 2.17 2.35 2.26 2.04 1.90 1.73 1.63 1.39 1.16
0.98 1.09 1.42 1.57 1.47 1.49 1.41 1.34 1.43 1.47 1.48 1.42 1.29 1.24 1.26 1.21 1.15 0.96 0.83 0.82 0.89 0.94 0.94 0.96 1.08 1.10 1.00 1.00 1.17 1.53 1.84 2.27 2.38 1.77 1.37 1.76 1.80 1.77 1.72 1.66 1.50 1.33 1.18
0.92 0.99 1.20 1.46 1.38 1.34 1.30 1.28 1.38 1.45 1.46 1.34 1.22 1.11 1.18 1.19 1.09 0.93 0.87 0.85 0.83 0.90 1.00 1.03 1.09 1.09 1.06 1.10 1.20 1.48 1.87 2.19 1.98 1.36 1.17 1.48 1.43 1.47 1.63 1.65 1.56 1.36 1.17
0.91 0.93 1.13 1.43 1.39 1.32 1.30 1.33 1.45 1.50 1.37 1.27 1.16 1.06 1.06 1.08 1.04 0.97 0.94 0.93 0.85 0.90 1.05 1.08 1.07 1.02 1.05 1.17 1.32 1.47 1.88 1.86 1.43 1.21 1.12 1.23 1.05 1.33 1.53 1.48 1.39 1.25 1.13
1.25 1.20 1.20 1.24 1.27 1.33 1.49 1.58 1.63 1.57 1.35 1.24 1.18 1.08 1.01 0.99 0.97 0.94 1.01 1.02 0.94 0.97 1.07 1.14 1.12 1.09 1.13 1.24 1.37 1.55 1.89 1.99 1.63 1.47 1.18 1.15 0.99 1.34 1.60 1.40 1.24 1.14 1.15
2.00 1.83 1.58 1.41 1.48 1.39 1.47 1.67 1.78 1.51 1.30 1.23 1.21 1.12 1.10 1.16 1.15 1.19 1.14 1.10 1.17 1.26 1.32 1.39 1.33 1.27 1.35 1.43 1.55 1.73 1.95 1.82 1.60 1.75 1.54 1.18 1.13 1.48 1.70 1.72 1.52 1.31 1.21
2.49 2.27 2.00 1.80 1.63 1.62 1.61 1.66 1.91 1.68 1.45 1.51 1.64 1.55 1.60 1.92 1.85 1.88 1.51 1.43 1.59 1.77 1.85 1.91 1.86 1.74 1.66 1.58 1.80 2.01 1.87 1.74 1.97 2.12 1.80 1.31 1.41 1.87 2.04 2.11 1.92 1.73 1.58
2.50 2.22 2.10 2.08 1.78 1.70 1.79 2.16 2.58 2.20 2.00 2.02 2.23 2.12 2.41 2.49 2.39 1.78 1.78 2.04 2.21 2.54 2.67 2.69 2.72 2.40 2.04 1.87 2.10 2.12 1.85 1.95 2.23 1.93 1.60 1.40 1.59 2.04 2.34 2.38 2.17 1.92 1.85
2.41 2.32 2.06 2.31 2.07 2.08 2.37 2.47 2.65 2.65 2.50 2.46 2.52 2.48 2.72 2.46 2.13 2.04 2.36 2.72 2.94 3.09 3.24 3.28 3.19 2.68 2.62 2.80 2.76 2.51 2.39 2.23 2.30 2.01 1.63 1.62 1.80 2.18 2.50 2.56 2.34 2.14 2.00
2.37 2.34 2.34 2.47 2.53 2.67 2.65 2.54 2.42 2.17 2.16 2.32 2.48 2.42 2.59 2.65 2.65 2.63 2.80 2.91 3.16 3.51 3.88 3.80 3.79 3.49 3.41 3.18 2.94 2.95 2.76 2.38 2.54 2.63 2.15 1.91 2.05 2.46 2.69 2.69 2.53 2.37 2.36
2.95 2.84 2.92 3.11 3.06 3.00 2.91 2.60 2.18 2.02 1.92 1.99 2.09 2.19 2.15 2.46 2.76 2.80 2.65 2.72 2.66 2.86 3.31 3.89 3.81 3.97 3.88 3.50 3.01 2.89 2.93 2.74 2.68 2.62 2.25 2.27 2.50 2.56 2.64 2.69 2.67 2.61 2.63
3.92 3.76 3.62 3.72 3.33 3.07 2.92 2.59 2.35 2.07 2.11 2.01 1.90 1.85 2.02 2.27 2.54 2.51 2.50 2.73 2.76 2.66 2.83 3.31 3.44 3.83 3.79 3.44 2.88 2.67 2.64 2.69 2.54 2.51 2.32 2.30 2.44 2.30 2.36 2.70 2.99 3.12 3.02
5.04 4.67 4.11 3.84 3.56 3.30 3.07 2.70 2.39 2.22 2.03 2.15 2.12 1.96 1.96 2.06 2.25 2.24 2.35 2.36 2.42 2.33 2.42 2.63 2.83 3.10 3.07 2.95 2.86 2.71 2.58 2.50 2.31 2.36 2.39 2.31 2.06 2.16 2.30 2.50 2.80 3.01 3.19
5.83 5.29 4.57 3.85 3.90 3.77 3.50 2.86 2.46 2.27 2.17 2.10 2.01 1.85 1.71 1.77 1.77 1.88 1.89 1.87 1.89 1.76 1.88 2.23 2.31 2.56 2.77 2.83 2.94 2.69 2.50 2.55 2.35 2.34 2.30 2.34 2.36 2.04 2.33 2.45 2.55 2.63 3.01
5.97 5.80 5.20 5.04 4.81 4.14 3.44 2.85 2.48 2.28 2.21 1.99 1.88 1.79 1.68 1.57 1.57 1.71 1.82 1.88 1.61 1.59 1.70 1.58 2.02 2.26 2.48 2.54 2.20 2.32 2.12 2.16 2.09 1.85 1.91 1.85 2.08 2.10 2.25 2.20 2.35 2.38 2.73
4.93 4.85 4.80 4.95 4.52 3.91 3.29 2.83 2.57 2.33 2.06 1.89 1.82 1.81 1.69 1.63 1.63 1.82 1.66 1.62 1.49 1.76 1.97 2.05 2.34 2.29 2.21 2.27 1.91 2.03 1.88 1.74 1.76 1.69 1.57 1.65 1.74 1.64 1.92 2.17 2.26 1.98 2.30
3.41 3.52 3.82 4.04 3.78 3.33 2.94 2.48 2.30 2.24 2.01 1.82 1.73 1.59 1.67 1.60 1.77 1.97 1.73 2.00 1.78 1.79 1.90 1.95 2.12 2.09 1.92 1.89 2.23 2.33 1.84 1.45 1.49 1.38 1.33 1.53 1.55 1.61 1.92 2.20 2.33 2.33 2.12
2.58 2.89 3.23 3.45 3.29 2.75 2.54 2.37 2.25 2.19 2.01 1.97 1.89 1.85 1.63 1.58 1.68 1.60 1.94 1.80 1.83 1.97 2.01 2.09 2.21 2.20 1.97 1.92 2.29 2.66 2.30 2.22 1.94 1.21 1.25 1.42 1.52 1.76 1.81 1.80 2.02 2.34 2.13
2.43 2.61 2.50 2.72 2.89 2.62 2.53 2.46 2.36 2.29 2.08 2.14 2.07 1.96 1.62 1.46 1.47 1.53 1.59 1.65 1.89 1.73 2.05 2.29 2.25 2.31 2.28 2.09 2.14 2.54 2.57 2.48 2.07 1.60 1.27 1.25 1.47 1.84 1.85 1.87 1.76 1.98 2.20
1.68 1.98 2.24 2.51 2.66 2.56 2.42 2.21 2.06 1.87 1.78 1.80 1.81 1.81 1.68 1.56 1.41 1.42 1.46 1.66 1.87 1.70 2.17 1.87 2.02 2.22 2.36 2.17 2.08 1.95 2.02 2.20 2.32 2.15 1.74 1.37 1.38 1.56 1.72 1.63 1.63 1.86 2.10
1.17 1.57 2.03 2.42 2.69 2.54 2.22 2.04 2.05 1.92 1.86 1.78 1.72 1.93 1.80 1.70 1.53 1.36 1.50 1.67 1.74 1.70 1.89 1.99 2.28 2.16 2.10 2.07 2.10 2.13 2.18 2.10 1.90 2.06 2.06 1.84 1.66 1.31 1.24 1.36 1.50 1.61 1.71
0.97 1.24 1.61 1.96 2.21 2.22 2.07 1.98 2.02 2.05 2.03 1.87 1.69 1.71 1.59 1.58 1.54 1.46 1.56 1.72 1.68 1.67 1.82 1.90 2.06 2.06 2.12 2.18 2.03 1.94 2.09 2.05 1.94 1.99 1.80 1.69 1.68 1.25 1.10 1.13 1.23 1.45 1.57

GEFSSE_prec_meanprecacc_282.txt.gz
Total_Precipitation_Accumulation
2.44 2.76 3.36 2.97 2.46 2.31 2.36 2.29 2.16 2.01 1.86 1.82 1.75 1.61 1.48 1.31 1.20 1.15 1.09 1.04 0.99 0.98 0.97 1.04 1.07 1.02 1.13 1.30 1.38 1.41 1.46 1.55 1.74 2.02 2.16 2.16 2.26 2.41 2.63 2.83 2.70 2.01 1.92
2.01 2.44 2.99 2.71 2.21 2.11 2.11 2.18 2.09 1.95 1.91 1.82 1.81 1.68 1.57 1.45 1.25 1.13 1.05 0.99 0.99 0.99 0.91 0.93 1.00 0.94 1.01 1.14 1.27 1.30 1.43 1.69 2.15 2.59 2.79 2.55 2.53 2.62 2.67 2.69 2.59 2.04 1.87
1.63 1.86 2.18 2.32 2.09 1.95 1.85 1.98 1.99 1.87 1.82 1.74 1.68 1.59 1.52 1.40 1.18 1.02 0.97 0.98 1.03 1.01 0.89 0.94 0.97 0.90 0.99 1.12 1.24 1.26 1.48 1.90 2.58 3.27 3.42 2.76 2.37 2.66 2.71 2.60 2.29 1.86 1.67
1.33 1.65 1.69 1.99 1.92 1.83 1.77 1.87 1.80 1.70 1.60 1.63 1.55 1.45 1.39 1.35 1.14 0.91 0.85 0.89 0.93 0.90 0.90 0.97 0.98 0.97 0.98 1.06 1.17 1.40 1.70 1.99 2.59 3.12 3.08 2.26 1.86 2.18 2.40 2.08 1.85 1.65 1.44
1.21 1.49 1.76 1.87 1.71 1.66 1.59 1.63 1.59 1.55 1.51 1.57 1.48 1.41 1.31 1.24 1.08 0.92 0.85 0.85 0.89 0.91 0.89 0.93 1.04 1.05 1.03 1.05 1.20 1.50 1.85 2.21 2.60 2.77 2.23 2.40 2.31 2.09 1.95 1.78 1.68 1.42 1.20
1.00 1.14 1.48 1.62 1.53 1.54 1.45 1.38 1.47 1.50 1.52 1.54 1.45 1.33 1.32 1.26 1.19 0.99 0.86 0.84 0.91 0.97 0.98 1.00 1.12 1.13 1.03 1.04 1.21 1.55 1.86 2.30 2.41 1.81 1.43 1.80 1.83 1.81 1.77 1.70 1.54 1.35 1.21
0.94 1.03 1.25 1.51 1.43 1.39 1.34 1.31 1.41 1.48 1.49 1.43 1.38 1.21 1.25 1.25 1.14 0.96 0.89 0.87 0.85 0.93 1.04 1.07 1.12 1.11 1.08 1.13 1.24 1.52 1.90 2.23 2.01 1.39 1.20 1.51 1.45 1.50 1.66 1.68 1.61 1.40 1.20
0.94 0.97 1.20 1.47 1.42 1.37 1.35 1.37 1.48 1.53 1.40 1.32 1.29 1.14 1.11 1.13 1.08 1.00 0.97 0.96 0.87 0.93 1.07 1.11 1.10 1.03 1.07 1.19 1.36 1.51 1.91 1.88 1.45 1.24 1.15 1.25 1.07 1.35 1.55 1.51 1.42 1.29 1.16
1.29 1.24 1.28 1.30 1.31 1.38 1.54 1.62 1.66 1.60 1.39 1.31 1.30 1.16 1.04 1.01 1.01 0.98 1.05 1.05 0.97 1.01 1.11 1.18 1.14 1.12 1.16 1.26 1.39 1.58 1.93 2.01 1.64 1.49 1.20 1.18 1.02 1.36 1.63 1.43 1.27 1.17 1.17
2.05 1.88 1.64 1.48 1.54 1.44 1.51 1.72 1.83 1.55 1.35 1.30 1.32 1.21 1.14 1.19 1.20 1.23 1.19 1.17 1.24 1.34 1.40 1.45 1.37 1.30 1.38 1.45 1.59 1.77 1.99 1.85 1.61 1.76 1.58 1.22 1.16 1.51 1.73 1.75 1.55 1.34 1.23
2.54 2.33 2.05 1.85 1.66 1.66 1.66 1.73 1.98 1.73 1.51 1.57 1.72 1.63 1.65 1.98 1.89 1.93 1.56 1.52 1.68 1.86 1.94 1.98 1.93 1.80 1.70 1.63 1.85 2.05 1.90 1.77 1.98 2.15 1.84 1.34 1.44 1.91 2.06 2.13 1.94 1.74 1.60
2.57 2.27 2.13 2.11 1.81 1.74 1.84 2.22 2.65 2.26 2.07 2.11 2.32 2.20 2.48 2.57 2.45 1.82 1.82 2.11 2.30 2.61 2.73 2.76 2.79 2.46 2.10 1.93 2.15 2.16 1.88 1.96 2.24 1.96 1.62 1.42 1.62 2.08 2.37 2.41 2.19 1.94 1.88
2.47 2.36 2.09 2.34 2.10 2.14 2.44 2.52 2.71 2.75 2.59 2.55 2.60 2.56 2.80 2.53 2.19 2.09 2.42 2.79 3.02 3.16 3.31 3.33 3.25 2.73 2.69 2.89 2.83 2.56 2.42 2.25 2.32 2.03 1.65 1.63 1.83 2.21 2.52 2.58 2.37 2.17 2.03
2.40 2.37 2.37 2.50 2.56 2.72 2.71 2.60 2.51 2.29 2.25 2.39 2.54 2.48 2.65 2.72 2.72 2.69 2.89 3.01 3.25 3.60 3.96 3.86 3.84 3.54 3.48 3.23 3.00 2.99 2.80 2.42 2.57 2.68 2.19 1.93 2.08 2.48 2.71 2.72 2.56 2.41 2.40
2.97 2.87 2.94 3.12 3.08 3.03 2.96 2.68 2.31 2.15 2.00 2.04 2.15 2.24 2.20 2.53 2.83 2.85 2.72 2.80 2.73 2.93 3.37 3.95 3.85 4.02 3.94 3.54 3.04 2.92 2.98 2.79 2.73 2.66 2.29 2.30 2.52 2.59 2.67 2.71 2.70 2.65 2.67
3.93 3.77 3.62 3.72 3.34 3.09 2.96 2.67 2.47 2.18 2.17 2.06 1.97 1.91 2.08 2.33 2.62 2.59 2.56 2.80 2.83 2.73 2.89 3.36 3.49 3.89 3.87 3.50 2.93 2.71 2.69 2.73 2.58 2.53 2.35 2.33 2.46 2.33 2.39 2.73 3.03 3.17 3.07
5.05 4.68 4.11 3.85 3.56 3.32 3.10 2.74 2.45 2.29 2.09 2.21 2.17 1.99 2.02 2.12 2.32 2.31 2.41 2.43 2.49 2.39 2.47 2.69 2.88 3.15 3.13 3.02 2.91 2.75 2.61 2.53 2.34 2.38 2.42 2.34 2.09 2.19 2.32 2.53 2.83 3.07 3.24
5.84 5.29 4.57 3.86 3.90 3.79 3.52 2.89 2.48 2.30 2.20 2.14 2.07 1.90 1.77 1.84 1.84 1.95 1.96 1.93 1.95 1.82 1.95 2.31 2.38 2.61 2.84 2.89 2.99 2.73 2.51 2.57 2.36 2.36 2.32 2.37 2.40 2.07 2.36 2.49 2.58 2.68 3.06
5.97 5.81 5.20 5.04 4.82 4.16 3.47 2.88 2.49 2.29 2.25 2.04 1.94 1.85 1.73 1.63 1.63 1.78 1.90 1.93 1.65 1.65 1.75 1.64 2.08 2.33 2.56 2.61 2.22 2.35 2.13 2.18 2.11 1.86 1.93 1.89 2.12 2.15 2.30 2.25 2.39 2.44 2.80
4.94 4.85 4.81 4.96 4.53 3.93 3.31 2.87 2.60 2.35 2.09 1.94 1.87 1.87 1.76 1.69 1.70 1.90 1.74 1.67 1.52 1.81 2.04 2.11 2.42 2.37 2.29 2.33 1.93 2.05 1.89 1.74 1.77 1.70 1.60 1.69 1.78 1.68 1.98 2.22 2.32 2.05 2.36
3.42 3.54 3.84 4.05 3.80 3.35 2.97 2.52 2.34 2.28 2.06 1.87 1.79 1.64 1.75 1.67 1.85 2.07 1.82 2.07 1.82 1.83 1.96 2.00 2.18 2.16 1.97 1.92 2.27 2.37 1.86 1.46 1.49 1.39 1.35 1.56 1.58 1.64 1.96 2.25 2.38 2.38 2.17
2.61 2.91 3.24 3.46 3.30 2.77 2.57 2.40 2.28 2.23 2.06 2.01 1.93 1.93 1.73 1.69 1.79 1.72 2.03 1.87 1.88 2.02 2.07 2.14 2.26 2.26 2.02 1.95 2.33 2.70 2.33 2.24 1.95 1.22 1.27 1.44 1.53 1.77 1.82 1.83 2.06 2.40 2.19
2.44 2.63 2.52 2.74 2.92 2.65 2.55 2.48 2.38 2.32 2.12 2.17 2.11 2.02 1.70 1.58 1.59 1.68 1.72 1.74 1.96 1.77 2.10 2.34 2.30 2.37 2.34 2.14 2.18 2.59 2.62 2.53 2.11 1.62 1.28 1.27 1.48 1.85 1.87 1.89 1.78 2.02 2.24
1.70 2.00 2.27 2.54 2.69 2.59 2.45 2.23 2.08 1.89 1.82 1.84 1.85 1.84 1.72 1.64 1.53 1.57 1.60 1.77 1.95 1.75 2.21 1.91 2.06 2.26 2.41 2.22 2.13 2.01 2.08 2.28 2.40 2.21 1.76 1.38 1.40 1.57 1.73 1.64 1.64 1.89 2.12
1.20 1.60 2.06 2.45 2.71 2.56 2.24 2.06 2.07 1.93 1.88 1.81 1.75 1.97 1.84 1.74 1.60 1.47 1.64 1.80 1.85 1.75 1.93 2.04 2.34 2.21 2.15 2.12 2.15 2.19 2.25 2.18 1.97 2.13 2.12 1.89 1.69 1.32 1.24 1.36 1.51 1.63 1.72
1.00 1.27 1.63 1.97 2.22 2.23 2.08 1.99 2.03 2.07 2.06 1.91 1.73 1.75 1.62 1.61 1.56 1.49 1.61 1.80 1.76 1.73 1.87 1.95 2.12 2.11 2.17 2.24 2.08 2.00 2.17 2.12 2.00 2.05 1.86 1.75 1.73 1.28 1.11 1.14 1.24 1.46 1.58